OEO122 LGMK-LOWW

Flight info

Callsign OEO122
Flight time 2h 7m
Altitude 36000
Route VARIX UL995 KEA UN132 ROPOX UM749 SKP UL617 MAKED DCT LONTA UM749 UDVAR DCT PARAK DCT BALUX DCT TORNO DCT NATEX NATEX2W
Aircraft A319/M-SDE3FGHIRWY/LB1

Departure

Time 2026-04-22 18:42
Airport Mykonos Island National Airport (LGMK)

Arrival

Time 2026-04-22 20:49
Airport Vienna International Airport (LOWW)
Time Latitude Longitude Altitude Speed Heading
2026-04-22 18:11 37.43462 25.34656 407 ft 0 kts 251°
2026-04-22 18:34 37.43463 25.34657 407 ft 2 kts 251°
2026-04-22 18:34 37.43473 25.34686 405 ft 4 kts 231°
2026-04-22 18:34 37.43492 25.34706 407 ft 4 kts 194°
2026-04-22 18:35 37.43517 25.34706 408 ft 2 kts 162°
2026-04-22 18:35 37.43519 25.34705 408 ft 0 kts 161°
2026-04-22 18:38 37.43511 25.34708 408 ft 6 kts 161°
2026-04-22 18:38 37.43456 25.34730 408 ft 11 kts 160°
2026-04-22 18:39 37.43373 25.34882 409 ft 12 kts 139°
2026-04-22 18:39 37.43282 25.34924 413 ft 17 kts 163°
2026-04-22 18:39 37.43154 25.34981 411 ft 22 kts 160°
2026-04-22 18:39 37.43001 25.35049 414 ft 25 kts 160°
2026-04-22 18:40 37.42860 25.35112 408 ft 23 kts 159°
2026-04-22 18:40 37.42773 25.35149 411 ft 1 kts 186°
2026-04-22 18:40 37.42729 25.35147 408 ft 10 kts 123°
2026-04-22 18:40 37.42784 25.35146 411 ft 9 kts 340°
2026-04-22 18:41 37.42786 25.35145 411 ft 0 kts 340°
2026-04-22 18:41 37.42813 25.35133 409 ft 21 kts 340°
2026-04-22 18:41 37.43225 25.34950 413 ft 103 kts 341°
2026-04-22 18:41 37.44114 25.34574 565 ft 151 kts 344°
2026-04-22 18:42 37.45104 25.34142 1297 ft 149 kts 341°
2026-04-22 18:42 37.46055 25.33711 1963 ft 148 kts 339°
2026-04-22 18:42 37.46919 25.32841 2164 ft 174 kts 306°
2026-04-22 18:42 37.47260 25.31245 2408 ft 198 kts 276°
2026-04-22 18:43 37.47415 25.29509 2828 ft 211 kts 277°
2026-04-22 18:43 37.47641 25.27513 3033 ft 243 kts 278°
2026-04-22 18:43 37.47894 25.25320 3591 ft 259 kts 277°
2026-04-22 18:43 37.48143 25.23104 4587 ft 260 kts 276°
2026-04-22 18:44 37.48164 25.20843 5490 ft 260 kts 256°
2026-04-22 18:44 37.47364 25.18787 6377 ft 262 kts 232°
2026-04-22 18:44 37.46166 25.17105 7272 ft 261 kts 230°
2026-04-22 18:44 37.44938 25.15399 8108 ft 265 kts 230°
2026-04-22 18:45 37.43695 25.13669 8946 ft 268 kts 231°
2026-04-22 18:45 37.42436 25.11921 9751 ft 273 kts 231°
2026-04-22 18:45 37.41158 25.10142 9892 ft 273 kts 231°
2026-04-22 18:45 37.39889 25.08369 9974 ft 273 kts 232°
2026-04-22 18:46 37.38614 25.06605 9973 ft 272 kts 232°
2026-04-22 18:46 37.37582 25.04647 9977 ft 268 kts 249°
2026-04-22 18:46 37.37156 25.02396 9970 ft 267 kts 267°
2026-04-22 18:46 37.37315 24.99955 9975 ft 296 kts 283°
2026-04-22 18:47 37.37951 24.97468 9967 ft 295 kts 288°
2026-04-22 18:47 37.38639 24.94958 10235 ft 307 kts 288°
2026-04-22 18:47 37.39338 24.92402 10868 ft 313 kts 288°
2026-04-22 18:47 37.40051 24.89773 11392 ft 321 kts 287°
2026-04-22 18:48 37.40761 24.87091 12062 ft 324 kts 287°
2026-04-22 18:48 37.41468 24.84389 12766 ft 327 kts 287°
2026-04-22 18:48 37.42180 24.81660 13455 ft 330 kts 287°
2026-04-22 18:48 37.42899 24.78910 14092 ft 332 kts 287°
2026-04-22 18:49 37.43627 24.76137 14701 ft 334 kts 287°
2026-04-22 18:49 37.44361 24.73357 15324 ft 336 kts 287°
2026-04-22 18:49 37.45099 24.70553 15911 ft 339 kts 287°
2026-04-22 18:49 37.45841 24.67729 16518 ft 341 kts 287°
2026-04-22 18:50 37.46587 24.64886 17121 ft 343 kts 287°
2026-04-22 18:50 37.47328 24.62061 17724 ft 346 kts 288°
2026-04-22 18:50 37.48082 24.59176 18318 ft 348 kts 288°
2026-04-22 18:50 37.48840 24.56269 18854 ft 350 kts 288°
2026-04-22 18:51 37.49603 24.53344 19374 ft 353 kts 288°
2026-04-22 18:51 37.50375 24.50399 19913 ft 355 kts 288°
2026-04-22 18:51 37.51152 24.47436 20454 ft 357 kts 288°
2026-04-22 18:51 37.51932 24.44453 20979 ft 360 kts 288°
2026-04-22 18:52 37.52715 24.41450 21483 ft 362 kts 288°
2026-04-22 18:52 37.53502 24.38427 21970 ft 364 kts 288°
2026-04-22 18:52 37.54290 24.35386 22453 ft 366 kts 288°
2026-04-22 18:52 37.55263 24.32413 22916 ft 369 kts 297°
2026-04-22 18:53 37.56701 24.29721 23359 ft 374 kts 308°
2026-04-22 18:53 37.58579 24.27423 23784 ft 380 kts 319°
2026-04-22 18:53 37.60762 24.25502 24170 ft 384 kts 322°
2026-04-22 18:53 37.62974 24.23603 24561 ft 385 kts 322°
2026-04-22 18:54 37.64445 24.22336 24808 ft 387 kts 321°
2026-04-22 18:54 37.67403 24.19775 25314 ft 389 kts 321°
2026-04-22 18:54 37.69631 24.17840 25727 ft 390 kts 321°
2026-04-22 18:54 37.71871 24.15892 26125 ft 391 kts 321°
2026-04-22 18:55 37.73360 24.14596 26383 ft 393 kts 321°
2026-04-22 18:55 37.75616 24.12631 26745 ft 395 kts 321°
2026-04-22 18:55 37.77883 24.10659 27123 ft 396 kts 321°
2026-04-22 18:55 37.80155 24.08682 27489 ft 398 kts 321°
2026-04-22 18:56 37.82436 24.06695 27845 ft 399 kts 321°
2026-04-22 18:56 37.84730 24.04699 28227 ft 400 kts 321°
2026-04-22 18:56 37.87027 24.02701 28569 ft 401 kts 321°
2026-04-22 18:56 37.89322 24.00697 28917 ft 402 kts 321°
2026-04-22 18:57 37.91630 23.98680 29241 ft 404 kts 321°
2026-04-22 18:57 37.93945 23.96651 29567 ft 405 kts 321°
2026-04-22 18:57 37.96268 23.94614 29941 ft 406 kts 321°
2026-04-22 18:57 37.98591 23.92575 30245 ft 406 kts 321°
2026-04-22 18:58 38.00914 23.90536 30591 ft 405 kts 321°
2026-04-22 18:58 38.03228 23.88508 30984 ft 403 kts 321°
2026-04-22 18:58 38.05531 23.86490 31375 ft 401 kts 321°
2026-04-22 18:58 38.07826 23.84478 31760 ft 400 kts 321°
2026-04-22 18:59 38.10111 23.82472 32155 ft 399 kts 321°
2026-04-22 18:59 38.12384 23.80466 32554 ft 397 kts 321°
2026-04-22 18:59 38.14669 23.78511 32942 ft 398 kts 325°
2026-04-22 18:59 38.17172 23.76970 33316 ft 403 kts 334°
2026-04-22 19:00 38.19891 23.76006 33674 ft 410 kts 343°
2026-04-22 19:00 38.22734 23.75549 34054 ft 412 kts 346°
2026-04-22 19:00 38.25582 23.75146 34379 ft 411 kts 346°
2026-04-22 19:00 38.28429 23.74741 34674 ft 412 kts 346°
2026-04-22 19:01 38.31278 23.74334 34910 ft 413 kts 346°
2026-04-22 19:01 38.34142 23.73917 35153 ft 414 kts 346°
2026-04-22 19:01 38.36969 23.73508 35407 ft 415 kts 346°
2026-04-22 19:01 38.39841 23.73091 35667 ft 415 kts 346°
2026-04-22 19:02 38.42702 23.72674 35937 ft 416 kts 346°
2026-04-22 19:02 38.45581 23.72252 36003 ft 414 kts 346°
2026-04-22 19:02 38.51280 23.71425 35999 ft 411 kts 346°
2026-04-22 19:03 38.56968 23.70599 35998 ft 411 kts 346°
2026-04-22 19:03 38.62655 23.69763 36005 ft 411 kts 345°
2026-04-22 19:04 38.68335 23.68921 36010 ft 410 kts 345°
2026-04-22 19:04 38.73988 23.68096 36012 ft 409 kts 345°
2026-04-22 19:05 38.79639 23.67271 36013 ft 409 kts 345°
2026-04-22 19:05 38.85288 23.66447 36012 ft 408 kts 345°
2026-04-22 19:06 38.90893 23.65621 36047 ft 408 kts 345°
2026-04-22 19:07 38.99351 23.64369 36026 ft 408 kts 345°
2026-04-22 19:07 39.04984 23.63536 36013 ft 407 kts 345°
2026-04-22 19:08 39.10618 23.62707 36043 ft 407 kts 345°
2026-04-22 19:08 39.16244 23.61868 36028 ft 406 kts 343°
2026-04-22 19:09 39.21546 23.59945 36014 ft 392 kts 332°
2026-04-22 19:09 39.26646 23.57479 36008 ft 392 kts 332°
2026-04-22 19:10 39.31752 23.55014 36040 ft 392 kts 332°
2026-04-22 19:10 39.36858 23.52543 36037 ft 391 kts 332°
2026-04-22 19:11 39.41952 23.50072 36053 ft 391 kts 332°
2026-04-22 19:11 39.47047 23.47610 36050 ft 391 kts 332°
2026-04-22 19:12 39.52134 23.45147 36047 ft 391 kts 332°
2026-04-22 19:12 39.57189 23.42690 36082 ft 391 kts 332°
2026-04-22 19:13 39.62276 23.40218 36075 ft 390 kts 332°
2026-04-22 19:13 39.67361 23.37755 36065 ft 390 kts 332°
2026-04-22 19:14 39.72437 23.35278 36061 ft 389 kts 331°
2026-04-22 19:14 39.77509 23.32796 36054 ft 389 kts 332°
2026-04-22 19:15 39.81722 23.30742 36092 ft 389 kts 331°
2026-04-22 19:15 39.87641 23.27842 36079 ft 389 kts 331°
2026-04-22 19:16 39.92699 23.25356 36078 ft 388 kts 331°
2026-04-22 19:16 39.97760 23.22867 36070 ft 388 kts 331°
2026-04-22 19:17 40.02812 23.20377 36096 ft 388 kts 331°
2026-04-22 19:17 40.07863 23.17889 36072 ft 388 kts 331°
2026-04-22 19:18 40.12879 23.15411 36064 ft 387 kts 331°
2026-04-22 19:18 40.17922 23.12921 36058 ft 387 kts 330°
2026-04-22 19:19 40.22957 23.10424 36056 ft 387 kts 330°
2026-04-22 19:19 40.27995 23.07923 36071 ft 387 kts 330°
2026-04-22 19:20 40.33035 23.05424 36059 ft 387 kts 330°
2026-04-22 19:20 40.38072 23.02914 36052 ft 387 kts 330°
2026-04-22 19:21 40.43107 23.00401 36048 ft 387 kts 330°
2026-04-22 19:21 40.47966 22.97528 36044 ft 380 kts 324°
2026-04-22 19:22 40.52631 22.94263 36044 ft 380 kts 324°
2026-04-22 19:22 40.57295 22.90993 36044 ft 380 kts 324°
2026-04-22 19:23 40.61959 22.87720 36045 ft 380 kts 324°
2026-04-22 19:23 40.66628 22.84451 36041 ft 380 kts 324°
2026-04-22 19:24 40.71295 22.81175 36063 ft 380 kts 324°
2026-04-22 19:24 40.75975 22.77877 36024 ft 382 kts 324°
2026-04-22 19:25 40.80646 22.74583 36020 ft 385 kts 324°
2026-04-22 19:25 40.85374 22.71237 36024 ft 386 kts 324°
2026-04-22 19:26 40.90117 22.67880 36023 ft 387 kts 324°
2026-04-22 19:26 40.94872 22.64515 36060 ft 388 kts 324°
2026-04-22 19:27 40.99640 22.61127 36034 ft 390 kts 324°
2026-04-22 19:27 41.04434 22.57718 36027 ft 392 kts 324°
2026-04-22 19:28 41.09251 22.54287 36029 ft 394 kts 324°
2026-04-22 19:28 41.13937 22.50599 36029 ft 386 kts 315°
2026-04-22 19:29 41.18119 22.46137 36065 ft 386 kts 315°
2026-04-22 19:29 41.22310 22.41662 36036 ft 388 kts 315°
2026-04-22 19:30 41.25820 22.37919 36033 ft 390 kts 315°
2026-04-22 19:30 41.30766 22.32627 36039 ft 391 kts 315°
2026-04-22 19:31 41.35004 22.28073 36042 ft 392 kts 315°
2026-04-22 19:31 41.39226 22.23541 36034 ft 393 kts 315°
2026-04-22 19:32 41.43477 22.18966 36044 ft 393 kts 315°
2026-04-22 19:32 41.47734 22.14374 36048 ft 394 kts 315°
2026-04-22 19:33 41.52011 22.09758 36041 ft 396 kts 316°
2026-04-22 19:33 41.56303 22.05113 36039 ft 398 kts 316°
2026-04-22 19:34 41.60605 22.00456 36041 ft 399 kts 316°
2026-04-22 19:34 41.64926 21.95778 36042 ft 400 kts 316°
2026-04-22 19:35 41.69234 21.91089 36079 ft 400 kts 316°
2026-04-22 19:35 41.72824 21.87170 36063 ft 401 kts 316°
2026-04-22 19:36 41.77879 21.81642 36056 ft 402 kts 316°
2026-04-22 19:36 41.82220 21.76906 36068 ft 403 kts 316°
2026-04-22 19:37 41.86560 21.72149 36061 ft 403 kts 316°
2026-04-22 19:37 41.90873 21.67409 36060 ft 403 kts 316°
2026-04-22 19:38 41.95221 21.62635 36091 ft 404 kts 317°
2026-04-22 19:38 41.99578 21.57845 36064 ft 405 kts 317°
2026-04-22 19:39 42.03946 21.53032 36069 ft 406 kts 317°
2026-04-22 19:39 42.08321 21.48188 36069 ft 407 kts 316°
2026-04-22 19:40 42.12695 21.43334 36072 ft 408 kts 316°
2026-04-22 19:40 42.17543 21.39293 36074 ft 417 kts 333°
2026-04-22 19:41 42.23136 21.37081 36089 ft 423 kts 339°
2026-04-22 19:41 42.28819 21.34999 36079 ft 424 kts 339°
2026-04-22 19:42 42.34510 21.32903 36080 ft 424 kts 339°
2026-04-22 19:42 42.40204 21.30803 36109 ft 425 kts 340°
2026-04-22 19:43 42.48769 21.27612 36087 ft 426 kts 340°
2026-04-22 19:43 42.54495 21.25484 36086 ft 427 kts 340°
2026-04-22 19:44 42.60229 21.23352 36088 ft 427 kts 340°
2026-04-22 19:44 42.65964 21.21215 36098 ft 428 kts 340°
2026-04-22 19:45 42.70746 21.19438 36091 ft 429 kts 340°
2026-04-22 19:45 42.76499 21.17286 36085 ft 429 kts 340°
2026-04-22 19:46 42.82248 21.15129 36084 ft 429 kts 340°
2026-04-22 19:46 42.88010 21.12961 36102 ft 429 kts 340°
2026-04-22 19:47 42.93757 21.10796 36102 ft 428 kts 341°
2026-04-22 19:47 42.99494 21.08635 36100 ft 427 kts 340°
2026-04-22 19:48 43.05225 21.06469 36114 ft 427 kts 341°
2026-04-22 19:48 43.10957 21.04301 36110 ft 427 kts 341°
2026-04-22 19:49 43.16703 21.02375 36108 ft 429 kts 344°
2026-04-22 19:49 43.22554 21.00739 36128 ft 429 kts 345°
2026-04-22 19:50 43.28410 20.99105 36120 ft 429 kts 345°
2026-04-22 19:50 43.34253 20.97394 36119 ft 429 kts 344°
2026-04-22 19:51 43.40077 20.95649 36124 ft 428 kts 344°
2026-04-22 19:51 43.45902 20.93898 36128 ft 428 kts 345°
2026-04-22 19:52 43.51738 20.92156 36120 ft 429 kts 345°
2026-04-22 19:52 43.57566 20.90419 36125 ft 429 kts 345°
2026-04-22 19:53 43.63401 20.88667 36137 ft 429 kts 345°
2026-04-22 19:53 43.69201 20.86926 36128 ft 430 kts 345°
2026-04-22 19:54 43.75046 20.85179 36129 ft 430 kts 345°
2026-04-22 19:54 43.80890 20.83422 36127 ft 430 kts 345°
2026-04-22 19:55 43.86735 20.81654 36131 ft 430 kts 345°
2026-04-22 19:55 43.92586 20.79892 36129 ft 430 kts 345°
2026-04-22 19:56 43.98441 20.78122 36134 ft 431 kts 345°
2026-04-22 19:56 44.04298 20.76345 36120 ft 431 kts 345°
2026-04-22 19:57 44.10163 20.74558 36133 ft 431 kts 346°
2026-04-22 19:57 44.16021 20.72768 36140 ft 431 kts 346°
2026-04-22 19:58 44.21894 20.70975 36147 ft 432 kts 346°
2026-04-22 19:58 44.27726 20.69202 36147 ft 432 kts 346°
2026-04-22 20:00 44.48328 20.62862 36151 ft 432 kts 346°
2026-04-22 20:01 44.54206 20.61055 36152 ft 432 kts 346°
2026-04-22 20:01 44.60079 20.59233 36150 ft 433 kts 346°
2026-04-22 20:02 44.65920 20.57425 36151 ft 433 kts 346°
2026-04-22 20:02 44.71800 20.55595 36158 ft 433 kts 347°
2026-04-22 20:03 44.77682 20.53759 36151 ft 433 kts 347°
2026-04-22 20:03 44.83564 20.51925 36147 ft 433 kts 347°
2026-04-22 20:04 44.89442 20.50082 36152 ft 432 kts 347°
2026-04-22 20:04 44.95317 20.48240 36153 ft 432 kts 347°
2026-04-22 20:05 45.01191 20.46397 36151 ft 432 kts 347°
2026-04-22 20:05 45.07063 20.44548 36153 ft 432 kts 347°
2026-04-22 20:06 45.12935 20.42702 36154 ft 432 kts 347°
2026-04-22 20:06 45.18808 20.40844 36146 ft 432 kts 347°
2026-04-22 20:07 45.24642 20.38995 36137 ft 432 kts 347°
2026-04-22 20:07 45.30510 20.37130 36135 ft 432 kts 347°
2026-04-22 20:08 45.36382 20.35266 36157 ft 432 kts 347°
2026-04-22 20:08 45.42255 20.33398 36138 ft 433 kts 347°
2026-04-22 20:09 45.48134 20.31520 36140 ft 433 kts 347°
2026-04-22 20:09 45.54006 20.29639 36139 ft 433 kts 347°
2026-04-22 20:10 45.59887 20.27761 36139 ft 433 kts 348°
2026-04-22 20:10 45.65766 20.25871 36144 ft 433 kts 348°
2026-04-22 20:11 45.71646 20.23975 36143 ft 433 kts 348°
2026-04-22 20:11 45.77526 20.22078 36134 ft 433 kts 348°
2026-04-22 20:12 45.83406 20.20173 36141 ft 433 kts 348°
2026-04-22 20:12 45.88293 20.18587 36138 ft 434 kts 348°
2026-04-22 20:13 45.95172 20.16349 36135 ft 434 kts 348°
2026-04-22 20:13 46.01023 20.14445 36140 ft 434 kts 348°
2026-04-22 20:14 46.06910 20.12527 36136 ft 434 kts 348°
2026-04-22 20:14 46.12794 20.10604 36131 ft 434 kts 348°
2026-04-22 20:15 46.18492 20.07754 36126 ft 437 kts 333°
2026-04-22 20:15 46.23799 20.03479 36129 ft 437 kts 333°
2026-04-22 20:16 46.29123 19.99217 36116 ft 437 kts 333°
2026-04-22 20:16 46.34451 19.94948 36127 ft 438 kts 333°
2026-04-22 20:17 46.39775 19.90658 36131 ft 438 kts 333°
2026-04-22 20:17 46.45102 19.86340 36132 ft 438 kts 333°
2026-04-22 20:18 46.50433 19.82022 36130 ft 438 kts 333°
2026-04-22 20:18 46.55761 19.77704 36132 ft 439 kts 333°
2026-04-22 20:19 46.61050 19.73396 36116 ft 439 kts 333°
2026-04-22 20:19 46.66416 19.69014 36122 ft 439 kts 333°
2026-04-22 20:20 46.71704 19.64690 36125 ft 439 kts 333°
2026-04-22 20:20 46.77036 19.60326 36122 ft 440 kts 334°
2026-04-22 20:21 46.82375 19.55951 36122 ft 440 kts 334°
2026-04-22 20:21 46.87714 19.51560 36108 ft 440 kts 334°
2026-04-22 20:22 46.93047 19.47152 36115 ft 440 kts 334°
2026-04-22 20:22 46.98381 19.42733 36115 ft 440 kts 334°
2026-04-22 20:23 47.03711 19.38317 36124 ft 441 kts 334°
2026-04-22 20:23 47.09052 19.33890 36124 ft 441 kts 334°
2026-04-22 20:24 47.14389 19.29462 36108 ft 441 kts 334°
2026-04-22 20:24 47.19724 19.25007 36115 ft 441 kts 334°
2026-04-22 20:25 47.25057 19.20534 36119 ft 441 kts 334°
2026-04-22 20:25 47.30362 19.15990 36115 ft 444 kts 329°
2026-04-22 20:25 47.32762 19.13103 35875 ft 449 kts 319°
2026-04-22 20:26 47.34795 19.09555 35632 ft 455 kts 308°
2026-04-22 20:26 47.36411 19.05508 35390 ft 461 kts 299°
2026-04-22 20:26 47.37737 19.01254 35144 ft 463 kts 298°
2026-04-22 20:26 47.39107 18.96885 34903 ft 464 kts 299°
2026-04-22 20:27 47.40471 18.92562 34671 ft 465 kts 299°
2026-04-22 20:27 47.41820 18.88283 34084 ft 468 kts 299°
2026-04-22 20:27 47.43206 18.83870 32982 ft 478 kts 299°
2026-04-22 20:27 47.44603 18.79390 32016 ft 483 kts 299°
2026-04-22 20:28 47.46013 18.74849 31023 ft 489 kts 300°
2026-04-22 20:28 47.47433 18.70258 30265 ft 491 kts 300°
2026-04-22 20:28 47.48844 18.65688 29557 ft 487 kts 300°
2026-04-22 20:28 47.50241 18.61155 28959 ft 482 kts 300°
2026-04-22 20:29 47.51626 18.56650 28281 ft 478 kts 300°
2026-04-22 20:29 47.52991 18.52199 27664 ft 474 kts 300°
2026-04-22 20:29 47.54250 18.47712 27052 ft 472 kts 293°
2026-04-22 20:29 47.55245 18.43099 26440 ft 468 kts 292°
2026-04-22 20:30 47.56220 18.38525 25837 ft 463 kts 292°
2026-04-22 20:30 47.57182 18.33995 25248 ft 459 kts 292°
2026-04-22 20:30 47.58137 18.29511 24653 ft 454 kts 292°
2026-04-22 20:30 47.59081 18.25074 24068 ft 449 kts 291°
2026-04-22 20:31 47.60006 18.20699 23496 ft 443 kts 291°
2026-04-22 20:31 47.60917 18.16374 22919 ft 435 kts 291°
2026-04-22 20:31 47.61810 18.12129 22406 ft 428 kts 291°
2026-04-22 20:31 47.62685 18.07956 21901 ft 421 kts 291°
2026-04-22 20:32 47.63534 18.03902 21427 ft 414 kts 291°
2026-04-22 20:32 47.64382 17.99850 20949 ft 409 kts 291°
2026-04-22 20:32 47.65225 17.95847 20462 ft 404 kts 292°
2026-04-22 20:32 47.66058 17.91887 19980 ft 400 kts 291°
2026-04-22 20:33 47.66877 17.87965 19478 ft 396 kts 291°
2026-04-22 20:33 47.67681 17.84090 19002 ft 392 kts 291°
2026-04-22 20:33 47.68477 17.80241 18488 ft 389 kts 291°
2026-04-22 20:33 47.69263 17.76423 17937 ft 385 kts 291°
2026-04-22 20:34 47.70040 17.72650 17419 ft 379 kts 291°
2026-04-22 20:34 47.70807 17.68932 16899 ft 374 kts 291°
2026-04-22 20:34 47.71567 17.65252 16367 ft 370 kts 291°
2026-04-22 20:34 47.72313 17.61627 15830 ft 366 kts 291°
2026-04-22 20:35 47.73087 17.58092 15257 ft 358 kts 297°
2026-04-22 20:35 47.73863 17.55921 14733 ft 349 kts 307°
2026-04-22 20:35 47.75171 17.52906 13887 ft 345 kts 307°
2026-04-22 20:35 47.76884 17.48987 12721 ft 338 kts 307°
2026-04-22 20:36 47.78154 17.46083 11892 ft 332 kts 306°
2026-04-22 20:36 47.78996 17.44151 11356 ft 329 kts 306°
2026-04-22 20:36 47.80230 17.41318 10558 ft 324 kts 306°
2026-04-22 20:36 47.81443 17.38530 9774 ft 319 kts 306°
2026-04-22 20:37 47.82606 17.35850 9574 ft 296 kts 306°
2026-04-22 20:37 47.83689 17.33342 9445 ft 283 kts 306°
2026-04-22 20:37 47.84735 17.30920 9275 ft 274 kts 306°
2026-04-22 20:37 47.85760 17.28553 8966 ft 270 kts 306°
2026-04-22 20:38 47.86775 17.26207 8633 ft 268 kts 306°
2026-04-22 20:38 47.87781 17.23883 8321 ft 266 kts 306°
2026-04-22 20:38 47.88762 17.21608 8191 ft 256 kts 306°
2026-04-22 20:38 47.89708 17.19408 8060 ft 248 kts 306°
2026-04-22 20:39 47.90622 17.17283 7932 ft 240 kts 307°
2026-04-22 20:39 47.91500 17.15245 7771 ft 233 kts 307°
2026-04-22 20:39 47.92367 17.13217 7530 ft 231 kts 304°
2026-04-22 20:39 47.93102 17.11081 7259 ft 231 kts 301°
2026-04-22 20:40 47.93816 17.08950 6898 ft 229 kts 301°
2026-04-22 20:40 47.94525 17.06838 6512 ft 227 kts 301°
2026-04-22 20:40 47.95230 17.04734 6101 ft 226 kts 301°
2026-04-22 20:40 47.95937 17.02650 5712 ft 225 kts 303°
2026-04-22 20:41 47.96696 17.00620 5427 ft 223 kts 303°
2026-04-22 20:41 47.97410 16.98565 5132 ft 223 kts 302°
2026-04-22 20:41 47.98099 16.96500 4839 ft 222 kts 301°
2026-04-22 20:41 47.98779 16.94446 4582 ft 218 kts 301°
2026-04-22 20:42 47.99432 16.92466 4442 ft 207 kts 302°
2026-04-22 20:42 48.00054 16.90583 4248 ft 200 kts 302°
2026-04-22 20:42 48.00666 16.88737 3953 ft 198 kts 302°
2026-04-22 20:42 48.01274 16.86897 3645 ft 197 kts 302°
2026-04-22 20:43 48.01873 16.85081 3445 ft 190 kts 302°
2026-04-22 20:43 48.02442 16.83351 3312 ft 181 kts 302°
2026-04-22 20:43 48.02988 16.81697 3121 ft 174 kts 303°
2026-04-22 20:43 48.03499 16.80141 3069 ft 162 kts 303°
2026-04-22 20:44 48.03988 16.78658 3029 ft 157 kts 304°
2026-04-22 20:44 48.04469 16.77199 3033 ft 156 kts 304°
2026-04-22 20:44 48.04949 16.75743 3035 ft 156 kts 303°
2026-04-22 20:44 48.05430 16.74282 2989 ft 157 kts 303°
2026-04-22 20:45 48.05904 16.72836 2856 ft 154 kts 303°
2026-04-22 20:45 48.06372 16.71409 2669 ft 152 kts 304°
2026-04-22 20:45 48.06823 16.70028 2460 ft 138 kts 304°
2026-04-22 20:45 48.07228 16.68790 2286 ft 129 kts 304°
2026-04-22 20:46 48.07996 16.66453 1932 ft 124 kts 305°
2026-04-22 20:46 48.08374 16.65312 1772 ft 125 kts 304°
2026-04-22 20:46 48.08770 16.64118 1631 ft 129 kts 303°
2026-04-22 20:47 48.09152 16.62920 1415 ft 129 kts 302°
2026-04-22 20:47 48.09553 16.61686 1234 ft 131 kts 300°
2026-04-22 20:47 48.09941 16.60489 1079 ft 127 kts 299°
2026-04-22 20:47 48.10330 16.59308 905 ft 125 kts 298°
2026-04-22 20:48 48.10709 16.58147 729 ft 123 kts 298°
2026-04-22 20:48 48.11076 16.57030 622 ft 110 kts 298°
2026-04-22 20:48 48.11366 16.56153 613 ft 74 kts 296°
2026-04-22 20:48 48.11564 16.55556 612 ft 59 kts 299°
2026-04-22 20:49 48.11781 16.55176 609 ft 15 kts 329°
2026-04-22 20:49 48.11803 16.55157 611 ft 0 kts 330°
2026-04-22 20:49 48.11810 16.55151 608 ft 3 kts 330°
2026-04-22 20:49 48.11850 16.55137 613 ft 9 kts
2026-04-22 20:50 48.11878 16.55218 612 ft 11 kts 95°
2026-04-22 20:50 48.11844 16.55324 618 ft 7 kts 116°
2026-04-22 20:50 48.11820 16.55399 620 ft 9 kts 116°
2026-04-22 20:50 48.11789 16.55493 608 ft 12 kts 115°
2026-04-22 20:51 48.11742 16.55637 618 ft 17 kts 116°
2026-04-22 20:51 48.11721 16.55762 613 ft 12 kts 67°
2026-04-22 20:51 48.11800 16.55832 611 ft 15 kts 25°
2026-04-22 20:51 48.11878 16.55890 619 ft 11 kts 24°
2026-04-22 20:52 48.11934 16.55929 620 ft 8 kts 25°
2026-04-22 20:52 48.11959 16.55909 618 ft 6 kts 293°
2026-04-22 20:52 48.11967 16.55864 616 ft 2 kts 292°
2026-04-22 20:52 48.11974 16.55844 608 ft 2 kts 296°
2026-04-22 20:53 48.11977 16.55832 616 ft 0 kts 296°